User: anonymous   Login
Location: Monroe
(41.9160°N, 83.3980°W)
Time: 04:34:43
(UTC-04:00)
Language:

deb Explorer IX - Orbit

View from above orbital plane
View from above orbital plane
View from above satellite
View from above satellite

Ground track
Ground track

The orbit data is extracted from the following two-line orbital elements,

1    85U 61004C   16235.47629930 +.00000362 +00000-0 +10352-3 0  9996
2    85 038.7753 275.2227 0397845 234.3374 121.9712 14.15798069732923
Epoch (UTC): 22 August 2016 11:25:52
Eccentricity: 0.0397845
inclination: 38.7753°
perigee height: 552 km
apogee height: 1127 km
right ascension of ascending node: 275.2227°
argument of perigee: 234.3374°
revolutions per day: 14.15798069
mean anomaly at epoch: 121.9712°
orbit number at epoch: 73292

The dashed part of the orbit path shows where the satellite is in the earth's shadow,  

DLR